This demonstration page uses our WeatherBlox Daily Observations layout. Learn more.

Left ArrowRight Arrow

Hourly Observations for September 29, 2021

Temp ( °F °C ) Dew Point ( °F °C ) Humidity (%) Winds ( mph kmh ) Pressure ( in mb ) Visibility ( mi km ) Precip ( " mm )
12:54 am 00:54 Clear 68 20 54 12.2 61 61 SSE 9 15 29.82 1010 10 16 N/A
1:54 am 01:54 Clear 68 20 55 12.8 63 63 S 3 6 29.81 1010 10 16 N/A
2:54 am 02:54 Clear 66 18.9 55 12.8 68 68 S 5 7 29.82 1010 10 16 N/A
3:54 am 03:54 Clear 67 19.4 56 13.3 68 68 S 5 7 29.81 1010 10 16 N/A
4:54 am 04:54 Clear 67 19.4 56 13.3 68 68 SSE 3 6 29.81 1010 10 16 N/A
5:54 am 05:54 Clear 66 18.9 56 13.3 70 70 N N/A 29.82 1010 10 16 N/A
6:54 am 06:54 Clear 67 19.4 57 13.9 71 71 ESE 8 13 29.82 1010 10 16 N/A
7:54 am 07:54 Sunny 67 19.4 58 14.4 73 73 SSE 6 9 29.84 1011 10 16 N/A
8:54 am 08:54 Sunny 70 21.1 58 14.4 66 66 ESE 8 13 29.84 1010 10 16 N/A
9:54 am 09:54 Sunny 73 22.8 59 15 62 62 SSE 10 17 29.85 1011 10 16 N/A
10:54 am 10:54 Mostly Cloudy 73 22.8 60 15.6 64 64 S 8 13 29.89 1012 10 16 N/A
11:16 am 11:16 Partly Cloudy with Nearby Thunderstorms 73 22.8 60 15.6 64 64 S 7 11 29.89 1012 10 16 N/A
11:41 am 11:41 Partly Cloudy with Strong Thunderstorms 70 21.1 62 16.7 76 76 WSW 18 30 29.88 1012 N/A 0.00 0.00
11:50 am 11:50 Partly Cloudy with Thunderstorms 68 20 63 17 83 83 VRB 5 7 29.90 1012 1 1 0.31 7.87
11:54 am 11:54 Partly Cloudy with Thunderstorms 68 20 63 17.2 84 84 NNE 7 11 29.90 1013 3 5 0.32 8.13
12:06 pm 12:06 Cloudy with Nearby Thunderstorms 69 20.6 64 17.8 84 84 N 5 7 29.88 1012 8 13 0.00 0.00
12:23 pm 12:23 Mostly Cloudy 70 21.1 64 17.8 82 82 E 5 7 29.88 1012 10 16 0.00 0.00
12:54 pm 12:54 Mostly Cloudy 74 23.3 63 17.2 69 69 VRB 6 9 29.89 1012 10 16 0.00 0.00
1:54 pm 13:54 Mostly Sunny 76 24.4 64 17.8 67 67 E 10 17 29.88 1012 10 16 N/A
2:54 pm 14:54 Sunny 78 25.6 65 18.3 64 64 ESE 10 17 29.86 1011 10 16 N/A
3:54 pm 15:54 Sunny 78 25.6 63 17.2 60 60 SSE 9 15 29.85 1011 10 16 N/A
4:54 pm 16:54 Sunny 79 26.1 63 17.2 58 58 SE 10 17 29.87 1011 10 16 N/A
5:54 pm 17:54 Mostly Cloudy with Light Rain 79 26.1 63 17.2 58 58 E 9 15 29.87 1012 10 16 0.00 0.00
6:54 pm 18:54 Partly Cloudy 78 25.6 63 17.2 60 60 ESE 10 17 29.88 1012 10 16 0.00 0.00
7:54 pm 19:54 Cloudy 77 25 61 16.1 58 58 SE 8 13 29.88 1012 10 16 N/A
8:54 pm 20:54 Mostly Cloudy 75 23.9 62 16.7 64 64 SSE 7 11 29.90 1013 10 16 N/A
9:54 pm 21:54 Cloudy 74 23.3 64 17.8 71 71 SSE 7 11 29.91 1013 10 16 0.00 0.00
10:54 pm 22:54 Mostly Cloudy 74 23.3 65 18.3 74 74 SSE 10 17 29.93 1014 10 16 N/A
11:54 pm 23:54 Clear 74 23.3 65 18.3 74 74 SSE 7 11 29.95 1014 10 16 N/A

Powered by AerisWeather